Location: Clifton Park
(41.4873°N, 81.8024°W)
Time: 11:23:51
(UTC+00:00)

H-2A ROCKET BODY - Pass Details

Date: 21 January 2020
Orbit: 242 x 15397 km, 28.6° (Epoch: 18 February)

Event Time Altitude Azimuth Distance (km) Brightness Sun altitude
Rises 00:36:26 0° 263° (W) 5,822 8.0 -23.8°
Reaches altitude 10° 00:43:36 10° 242° (WSW) 2,817 5.8 -25.2°
Maximum altitude 00:46:14 13° 216° (SW) 1,935 4.5 -25.7°
Enters shadow 00:47:54 10° 188° (S) 1,704 3.9 -26.0°
